Location: Banff
(51.1667°N, 115.5667°W)
Time: 12:52:28
(UTC+00:00)

Vanguard 1 Rocket - Pass Details

Date: 28 November 2020
Orbit: 655 x 4222 km, 34.3° (Epoch: 23 January)

Event Time Altitude Azimuth Distance (km) Brightness Sun altitude
Rises 15:56:10 0° 275° (W) 6,997 11.4 3.5°
Reaches altitude 10° 16:05:46 10° 250° (WSW) 4,937 10.9 4.6°
Maximum altitude 16:09:27 12° 234° (SW) 4,355 10.8 5.1°
Drops below altitude 10° 16:12:37 10° 216° (SW) 4,080 10.9 5.4°
Sets 16:18:17 0° 185° (S) 4,320 11.5 6.0°
